Gujranwala, Pakistan
Current Conditions -  °F | °C
As of 12:55 PM on Sunday 26 Oct 2014 (Local Time) from OPLA Reporting Station
Haze Haze  
Wind Chill: 84°   Ceiling: Unl
Heat Index: 85°   Visibility: 2.5mi
Dew Point: 63°   Wind: 5mph
Humidity: 48%   Direction: 90°E
Pressure: NA   Gusts: NA
Location:  32.16°N, 74.18°E
Report Text: OPLA 260755Z 09004KT 4000 HZ NSC 29/17 Q1016/A30.01 NOSIG
Loading
Personal Weather Stations






























Interactive Weather Map
Tropical Storm Tracking
New forecast layout! Learn more

10-Day Weather Forecast

Advertisements
Track Severe Weather on mobile